Location: Grums
(59.3529°N, 13.1129°E)
Time: 20:01:46
(UTC+02:00)

N. Korean satellite - Pass Details

Date: 24 September 2021
Orbit: 450 x 495 km, 97.3° (Epoch: 26 October)

Event Time Altitude Azimuth Distance (km) Brightness Sun altitude
Rises 05:54:49 0° 21° (NNE) 2,516 10.7 -8.6°
Reaches altitude 10° 05:57:04 10° 34° (NNE) 1,643 10.0 -8.4°
Maximum altitude 06:00:09 28° 95° (E) 931 8.9 -8.0°
Drops below altitude 10° 06:03:15 10° 155° (SSE) 1,654 9.4 -7.6°
Sets 06:05:32 0° 168° (SSE) 2,537 10.2 -7.3°
